This demonstration page uses our WeatherBlox Daily Observations layout. Learn more.

38.88101, -77.10428

Hourly Observations for January 27, 2016

Temp ( °F °C ) Dew Point ( °F °C ) Humidity (%) Winds ( mph kmh ) Pressure ( in mb ) Visibility ( mi km ) Precip ( " mm )
12:52 am 00:52 Mostly Cloudy 46 8 36 2 66 66 SW 5 7 30 1016 10 16.09344 0 0
1:52 am 01:52 Cloudy 46 8 37 3 71 71 NW 6 9 30.03 1017 10 16.09344 0 0
2:52 am 02:52 Cloudy 45 7 34 1 66 66 NNW 13 20 30.03 1017 10 16.09344 0.001 0.001
3:52 am 03:52 Cloudy with Light Rain 41 5 34 1 76 76 NNW 15 24 30.06 1018 10 16.09344 0.001 0.001
4:52 am 04:52 Cloudy 39 4 30 -1 70 70 NNW 12 19 30.06 1018 10 16.09344 0.001 0.001
5:52 am 05:52 Cloudy 39 4 30 -1 70 70 NNW 13 20 30.09 1019 10 16.09344 0 0
6:52 am 06:52 Cloudy 39 4 28 -2 65 65 NNW 10 17 30.12 1020 10 16.09344 0 0
7:52 am 07:52 Cloudy 39 4 28 -2 65 65 NNW 10 17 30.15 1021 10 16.09344 0 0
8:52 am 08:52 Cloudy 39 4 28 -2 65 65 NNW 8 13 30.18 1022 10 16.09344 0 0
9:52 am 09:52 Cloudy 39 4 27 -3 61 61 NNW 13 20 30.21 1023 10 16.09344 0 0
10:52 am 10:52 Cloudy 41 5 23 -5 49 49 NW 16 26 30.21 1023 10 16.09344 0 0
11:52 am 11:52 Partly Cloudy 43 6 23 -5 46 46 WNW 10 17 30.21 1023 10 16.09344 0 0
12:52 pm 12:52 Partly Cloudy 43 6 23 -5 46 46 NNW 16 26 30.18 1022 10 16.09344 0 0
1:52 pm 13:52 Partly Cloudy 43 6 23 -5 46 46 NNW 10 17 30.15 1021 10 16.09344 0 0
2:52 pm 14:52 Partly Cloudy 43 6 25 -4 49 49 N 13 20 30.15 1021 10 16.09344 0 0
3:52 pm 15:52 Partly Cloudy 43 6 19 -7 39 39 NW 12 19 30.18 1022 10 16.09344 0 0
4:52 pm 16:52 Mostly Cloudy 39 4 18 -8 42 42 NW 9 15 30.18 1022 10 16.09344 0 0
5:52 pm 17:52 Mostly Cloudy 39 4 19 -7 45 45 NNW 10 17 30.18 1022 10 16.09344 0 0
6:52 pm 18:52 Partly Cloudy 37 3 19 -7 48 48 NNW 8 13 30.18 1022 10 16.09344 0 0
7:52 pm 19:52 Mostly Cloudy 37 3 19 -7 48 48 N 7 11 30.18 1022 10 16.09344 0 0
8:52 pm 20:52 Partly Cloudy 36 2 21 -6 56 56 N 9 15 30.18 1022 10 16.09344 0 0
9:52 pm 21:52 Mostly Cloudy 34 1 19 -7 56 56 N 5 7 30.18 1022 10 16.09344 0 0
10:52 pm 22:52 Partly Cloudy 34 1 19 -7 56 56 Calm 30.18 1022 10 16.09344 0 0
11:52 pm 23:52 Mostly Clear 30 -1 21 -6 69 69 Calm 30.18 1022 10 16.09344 0 0

Powered by AerisWeather